Regional Weather Roundup
Issued by NWS Goodland, KS

Home | Current Version | Previous Version | Graphics & Text | Print | Product List | Glossary On
Versions: 1 2 3 4 5 6 7 8 9 10 11 12 13 14 15 16 17 18 19 20 21 22 23 24 25 26 27 28 29 30 31 32 33 34 35 36 37 38 39 40 41 42 43 44 45 46 47 48 49 50
535
ASUS43 KGLD 252159
RWRGLD

GOODLAND FORECAST AREA HOURLY WEATHER ROUNDUP
NATIONAL WEATHER SERVICE GOODLAND KS
400 PM MDT MON JUL 25 2016

...OFFICIAL OBSERVATIONS...

CITY           SKY/WX    TMP DP  RH WIND       PRES   REMARKS
GOODLAND KS    MOSUNNY   83  63  50 SE12      30.12F
HILL CITY KS   MOSUNNY   87  66  49 VRB7      30.06F
IMPERIAL NEB   MOSUNNY   89  57  33 S18       30.09F
MCCOOK NEB     MOSUNNY   89  65  44 SE15G23   30.07F
AKRON CO       SUNNY     85  60  42 SE20G30   30.13F
BURLINGTON CO  SUNNY     81  63  54 SE20      30.15F
LIMON CO       NOT AVBL
$$

...UNOFFICIAL OBSERVATIONS...

CITY           SKY/WX    TMP DP  RH WIND       PRES   REMARKS
COLBY KS       SUNNY     88  64  45 SE8       30.12F
LENORA KS        N/A     85  32  15 MISG        N/A
NORTON KS      SUNNY     88  57  35 E9G17     30.07
YUMA CO          N/A     82  64  54 S6G21       N/A
$$




USA.gov is the U.S. government's official web portal to all federal, state and local government web resources and services.